Weather History for K0VG - February, 2013

Change the Weather History Date:

Saturday, February 16, 2013

  Actual Average (KLOZ) Record (KLOZ)
Temperature  
Mean Temperature 28 °F 40 °F  
Max Temperature 33 °F 50 °F 69 °F (2006)
Min Temperature 24 °F 30 °F 0 °F (1958)
Degree Days  
Heating Degree Days 36 25  
Month to date heating degree days 429  
Since 1 July heating degree days 2992  
Cooling Degree Days 0 0  
Month to date cooling degree days 0  
Year to date cooling degree days 0  
Moisture  
Dew Point 20 °F    
Average Humidity 69    
Maximum Humidity 100    
Minimum Humidity 38    
Precipitation  
Precipitation 1.08 in 0.13 in 1.87 in (2003)
Month to date precipitation 2.08  
Year to date precipitation 5.62  
Sea Level Pressure  
Sea Level Pressure 30.03 in    
Wind  
Wind Speed 4 mph (NW)    
Max Wind Speed 15 mph    
Max Gust Speed 23 mph    
Visibility 9 miles    
Events Snow    
T = Trace of Precipitation, MM = Missing Value Source: NWS Daily Summary

Daily Weather History Graph

Daily Weather History Graph

Search for Another Location

Airport or City:

Trip Planner

Search our weather history database for the weather conditions in past years. The results will help you decide how hot, cold, wet, or windy it might be!

Date:

Astronomy

Feb. 16, 2013 Rise Set
Actual Time 7:19 AM EST 6:14 PM EST
Civil Twilight 6:53 AM EST 6:41 PM EST
Nautical Twilight 6:22 AM EST 7:11 PM EST
Astronomical Twilight 5:52 AM EST 7:41 PM EST
Moon 10:43 AM EST (2/16) 12:02 AM EST (2/16)
Length of Visible Light 11h 47m
Length of Day
10h 55m
Waxing Crescent, 39% of the Moon is Illuminated
Feb 16
Waxing Crescent
Feb 17
First Quarter
Feb 25
Full
Mar 4
Last Quarter
Mar 11
New

Hourly Weather History & Observations

Time (EST) Temp. Windchill Dew Point Humidity Pressure Visibility Wind Dir Wind Speed Gust Speed Precip Events Conditions
12:15 AM 32.0 °F - 28.4 °F 87% 30.08 in 10.0 mi Calm Calm - N/A   Overcast
12:35 AM 32.0 °F - 30.2 °F 93% 30.07 in 10.0 mi Calm Calm - N/A   Overcast
12:55 AM 32.0 °F - 30.2 °F 93% 30.07 in 10.0 mi Calm Calm - N/A   Overcast
1:15 AM 32.0 °F - 30.2 °F 93% 30.06 in 10.0 mi Calm Calm - N/A   Overcast
1:35 AM 32.0 °F - 30.2 °F 93% 30.05 in 10.0 mi Calm Calm - N/A   Overcast
1:55 AM 32.0 °F - 30.2 °F 93% 30.05 in 10.0 mi Calm Calm - N/A   Overcast
2:15 AM 28.4 °F - 28.4 °F 100% 30.05 in 10.0 mi Calm Calm - N/A   Mostly Cloudy
2:35 AM 32.0 °F 28.7 °F 26.6 °F 80% 30.04 in 10.0 mi WNW 3.5 mph - N/A   Overcast
2:55 AM 32.0 °F 27.5 °F 26.6 °F 80% 30.03 in 10.0 mi NW 4.6 mph - N/A   Overcast
3:15 AM 32.0 °F 28.7 °F 26.6 °F 80% 30.03 in 10.0 mi NW 3.5 mph - N/A   Overcast
3:35 AM 32.0 °F 28.7 °F 26.6 °F 80% 30.03 in 10.0 mi WNW 3.5 mph - N/A   Overcast
3:55 AM 32.0 °F - 26.6 °F 80% 30.02 in 10.0 mi Calm Calm - N/A   Overcast
4:15 AM 30.2 °F 26.7 °F 24.8 °F 80% 30.02 in 10.0 mi NNW 3.5 mph - N/A   Mostly Cloudy
4:35 AM 30.2 °F - 26.6 °F 86% 30.01 in 10.0 mi Calm Calm - N/A   Mostly Cloudy
4:55 AM 30.2 °F - 24.8 °F 80% 30.01 in 10.0 mi Calm Calm - N/A   Overcast
5:15 AM 28.4 °F - 26.6 °F 93% 30.01 in 10.0 mi Calm Calm - N/A   Overcast
5:35 AM 32.0 °F - 24.8 °F 75% 30.01 in 10.0 mi Calm Calm - N/A   Overcast
5:55 AM 32.0 °F 25.6 °F 23.0 °F 69% 30.01 in 10.0 mi NNW 6.9 mph - N/A   Overcast
6:15 AM 32.0 °F 24.8 °F 23.0 °F 69% 30.01 in 10.0 mi North 8.1 mph - N/A   Overcast
6:35 AM 30.2 °F 23.4 °F 23.0 °F 75% 30.01 in 10.0 mi NNW 6.9 mph - N/A   Overcast
6:55 AM 30.2 °F 25.4 °F 23.0 °F 75% 30.01 in 10.0 mi NNW 4.6 mph - N/A   Overcast
7:15 AM 28.4 °F 22.2 °F 23.0 °F 80% 30.01 in 10.0 mi NNW 5.8 mph - N/A   Scattered Clouds
7:35 AM 28.4 °F 22.2 °F 21.2 °F 74% 30.01 in 10.0 mi NNW 5.8 mph - N/A   Clear
7:55 AM 28.4 °F 21.2 °F 21.2 °F 74% 30.01 in 10.0 mi NNW 6.9 mph - N/A   Clear
8:15 AM 28.4 °F 21.2 °F 21.2 °F 74% 30.02 in 10.0 mi NNW 6.9 mph - N/A   Clear
8:35 AM 30.2 °F 24.3 °F 21.2 °F 69% 30.02 in 10.0 mi North 5.8 mph - N/A   Partly Cloudy
8:55 AM 30.2 °F 24.3 °F 21.2 °F 69% 30.02 in 10.0 mi NNW 5.8 mph - N/A   Scattered Clouds
9:15 AM 30.2 °F 23.4 °F 21.2 °F 69% 30.02 in 10.0 mi NW 6.9 mph - N/A   Scattered Clouds
9:35 AM 32.0 °F 27.5 °F 21.2 °F 64% 30.01 in 10.0 mi NNW 4.6 mph - N/A   Mostly Cloudy
9:55 AM 32.0 °F 24.8 °F 19.4 °F 60% 30.01 in 10.0 mi North 8.1 mph - N/A   Scattered Clouds
10:15 AM 32.0 °F 26.4 °F 17.6 °F 55% 30.01 in 10.0 mi NNW 5.8 mph - N/A   Scattered Clouds
10:35 AM 32.0 °F 26.4 °F 17.6 °F 55% 30.02 in 10.0 mi North 5.8 mph - N/A   Mostly Cloudy
1:35 PM 33.8 °F 25.8 °F 10.4 °F 38% 29.99 in 10.0 mi NW 10.4 mph - N/A   Mostly Cloudy
1:55 PM 32.0 °F 24.8 °F 12.2 °F 44% 29.99 in 10.0 mi WNW 8.1 mph 17.3 mph N/A   Mostly Cloudy
2:15 PM 32.0 °F 24.2 °F 12.2 °F 44% 29.99 in 10.0 mi NW 9.2 mph - N/A   Mostly Cloudy
2:35 PM 32.0 °F 25.6 °F 12.2 °F 44% 29.99 in 10.0 mi WNW 6.9 mph - N/A   Scattered Clouds
2:55 PM 32.0 °F 26.4 °F 14.0 °F 48% 29.98 in 10.0 mi NW 5.8 mph - N/A   Scattered Clouds
3:15 PM 32.0 °F 23.0 °F 14.0 °F 48% 29.98 in 10.0 mi NW 11.5 mph 17.3 mph N/A   Scattered Clouds
3:35 PM 30.2 °F 23.4 °F 19.4 °F 64% 29.99 in 2.5 mi WNW 6.9 mph 18.4 mph 0.01 in Snow Light Snow
3:55 PM 30.2 °F 21.9 °F 19.4 °F 64% 29.99 in 4.0 mi West 9.2 mph - 0.04 in   Haze
4:15 PM 28.4 °F 18.0 °F 19.4 °F 69% 30.00 in 2.5 mi NNW 12.7 mph 19.6 mph 0.04 in Snow Light Snow
4:35 PM 28.4 °F 22.2 °F 23.0 °F 80% 30.00 in 3.0 mi West 5.8 mph - 0.11 in Snow Light Snow
4:55 PM 30.2 °F 24.3 °F 19.4 °F 64% 30.00 in 8.0 mi WNW 5.8 mph - 0.11 in Snow Light Snow
5:15 PM 32.0 °F 23.0 °F 15.8 °F 51% 30.00 in 10.0 mi NNW 11.5 mph 17.3 mph N/A   Clear
5:35 PM 28.4 °F 22.2 °F 15.8 °F 59% 30.01 in 10.0 mi NNW 5.8 mph - N/A   Partly Cloudy
5:55 PM 28.4 °F 24.6 °F 19.4 °F 69% 30.01 in 10.0 mi NW 3.5 mph - N/A   Mostly Cloudy
6:15 PM 28.4 °F 22.2 °F 19.4 °F 69% 30.02 in 10.0 mi West 5.8 mph - N/A   Mostly Cloudy
6:35 PM 24.8 °F 19.1 °F 24.8 °F 100% 30.03 in 0.5 mi WNW 4.6 mph - 0.93 in Snow Snow
6:55 PM 24.8 °F 20.5 °F 21.2 °F 86% 30.03 in 10.0 mi WSW 3.5 mph - 0.93 in   Overcast
7:15 PM 24.8 °F 20.5 °F 21.2 °F 86% 30.04 in 10.0 mi WSW 3.5 mph - N/A   Overcast
7:35 PM 24.8 °F 20.5 °F 19.4 °F 80% 30.03 in 10.0 mi West 3.5 mph - N/A   Overcast
7:55 PM 24.8 °F 17.9 °F 19.4 °F 80% 30.04 in 10.0 mi West 5.8 mph - N/A   Mostly Cloudy
8:15 PM 24.8 °F 19.1 °F 15.8 °F 69% 30.04 in 10.0 mi West 4.6 mph - N/A   Partly Cloudy
8:35 PM 24.8 °F 16.9 °F 14.0 °F 64% 30.04 in 10.0 mi WNW 6.9 mph - N/A   Partly Cloudy
8:55 PM 24.8 °F 16.9 °F 14.0 °F 64% 30.04 in 10.0 mi West 6.9 mph - N/A   Clear
9:15 PM 24.8 °F 16.1 °F 12.2 °F 59% 30.05 in 10.0 mi West 8.1 mph - N/A   Clear
9:35 PM 24.8 °F 17.9 °F 10.4 °F 54% 30.05 in 10.0 mi WNW 5.8 mph - N/A   Clear
9:55 PM 24.8 °F 17.9 °F 10.4 °F 54% 30.06 in 10.0 mi West 5.8 mph - N/A   Clear
10:15 PM 26.6 °F 15.7 °F 8.6 °F 47% 30.06 in 10.0 mi West 12.7 mph 18.4 mph N/A   Mostly Cloudy
10:35 PM 26.6 °F 14.7 °F 6.8 °F 43% 30.07 in 10.0 mi WNW 15.0 mph 21.9 mph N/A   Overcast
11:15 PM 24.8 °F 13.4 °F 6.8 °F 46% 30.07 in 10.0 mi NW 12.7 mph 23.0 mph N/A   Mostly Cloudy
11:35 PM 24.8 °F 14.6 °F 5.0 °F 43% 30.08 in 10.0 mi WNW 10.4 mph - N/A   Scattered Clouds
11:55 PM 24.8 °F 13.4 °F 5.0 °F 43% 30.08 in 10.0 mi WNW 12.7 mph 23.0 mph N/A   Scattered Clouds